Hourly Data Report for September 24, 2010

IQALUIT CLIMATE
NUNAVUT

63°44'50.000" N
68°32'40.000" W
33.50 m
2402592
71321
XFB

Download Data

Hourly Data (September 2010)
Hourly Data Report for September 24, 2010
TIME
LST
Temp Definition
°C
Dew Point Definition
°C
Rel Hum Definition
%
Precip. Amount Definition
mm

Wind Dir Definition
10's deg

Wind Spd Definition
km/h
Visibility Definition
km
Stn Press Definition
kPa
Hmdx Definition


Wind Chill Definition


Weather Definition


00:00 3.9 2.6 91   32 20   99.58     LegendNANA
01:00 3.8 2.3 90   32 24   99.62     LegendNANA
02:00 3.5 2.3 92   32 24   99.71     LegendNANA
03:00 3.2 2.3 94   32 24   99.76     LegendNANA
04:00 2.8 2.3 97   32 20   99.82     LegendNANA
05:00 2.8 2.2 96   32 22   99.86     LegendNANA
06:00 2.8 1.5 91   33 28   99.90     LegendNANA
07:00 2.9 1.2 89   33 24   99.96     LegendNANA
08:00 3.2 1.3 87   33 26   99.99     LegendNANA
09:00 4.0 1.6 84   34 28   100.02     LegendNANA
10:00 4.3 2.2 86   34 24   100.05     LegendNANA
11:00 4.1 3.3 95   32 28   100.08     LegendNANA
12:00 4.3 2.8 90   33 32   100.11     LegendNANA
13:00 4.6 2.3 85   33 30   100.13     LegendNANA
14:00 4.6 2.3 85   32 28   100.17     LegendNANA
15:00 4.4 1.9 84   32 28   100.21     LegendNANA
16:00 4.7 1.7 81   33 26   100.21     LegendNANA
17:00 4.4 1.4 81   32 28   100.23     LegendNANA
18:00 2.4 1.1 91   32 15   100.26     LegendNANA
19:00 1.6 1.2 97   31 11   100.28     LegendNANA
20:00 2.1 1.6 96   32 11   100.30     LegendNANA
21:00 2.2 2.0 99   33 11   100.30     LegendNANA
22:00 2.1 1.9 99   32 15   100.30     LegendNANA
23:00 2.1 1.8 98   33 11   100.32     LegendNANA

Notes on Data Quality.

Legend

  • E = Estimated
  • M = Missing
  • NA = Not Available*
  • [empty] = Indicates an unobserved value
Date modified: